Hourly Data Report for October 01, 2017

All times are specified in Local Standard Time (LST). Add 1 hour to adjust for Daylight Saving Time where and when it is observed.

INGONISH BEACH RCS
NOVA SCOTIA

46°39'46.001" N
60°24'23.000" W
10.00 m
8202502
71027
XIB

Download Data

Hourly Data (October 2017)
Hourly Data Report for October 1, 2017
Temp Definition
°C
Dew Point Temp Definition
°C
Rel Hum Definition
%
Wind Dir Definition
10's deg

Wind Spd Definition
km/h
Visibility Definition
km
Stn Press Definition
kPa
Hmdx Definition


Wind Chill Definition


Weather Definition


TIME
00:00 4.1 1.6 84 0 1   102.18     LegendNANA
01:00 2.9 0.8 86 22 1   102.16     LegendNANA
02:00 2.4 0.6 88 24 7   102.13     LegendNANA
03:00 1.7 0.1 89 23 6   102.11     LegendNANA
04:00 1.3 0.0 91 25 4   102.06     LegendNANA
05:00 1.6 0.2 91 26 3   102.00     LegendNANA
06:00 1.5 0.3 92 24 4   101.99     LegendNANA
07:00 2.7 1.5 92 24 4   101.96     LegendNANA
08:00 9.1 5.0 75 13 6   101.89     LegendNANA
09:00 12.8 2.4 49 23 11   101.85     LegendNANA
10:00 14.1 3.9 50 25 10   101.82     LegendNANA
11:00 14.7 1.3 40 24 10   101.71     LegendNANA
12:00 15.8 1.6 38 24 11   101.63     LegendNANA
13:00 16.3 1.1 36 26 12   101.54     LegendNANA
14:00 15.8 3.5 44 25 14   101.51     LegendNANA
15:00 15.6 3.5 44 24 11   101.45     LegendNANA
16:00 15.1 3.9 47 22 11   101.46     LegendNANA
17:00 13.6 4.7 55 22 11   101.48     LegendNANA
18:00 11.9 5.6 65 18 7   101.50     LegendNANA
19:00 11.2 6.3 72 12 3   101.53     LegendNANA
20:00 13.0 6.0 62 17 5   101.54     LegendNANA
21:00 10.0 4.8 70 29 4   101.61     LegendNANA
22:00 10.0 5.0 71 26 4   101.61     LegendNANA
23:00 6.9 4.2 83 0 1   101.59     LegendNANA

Notes on Data Quality.

Legend

  • E = Estimated
  • M = Missing
  • NA = Not Available
  • ‡ = Partner data that is not subject to review by the National Climate Archives
Date modified: